Time,TemperatureF,DewpointF,PressureIn,WindDirection,WindDirectionDegrees,WindSpeedMPH,WindSpeedGustMPH,Humidity,HourlyPrecipIn,Conditions,Clouds,dailyrainin,SoftwareType,DateUTC
2016-02-08 00:02:00,-999.9,-99.9,29.95,NE,45,0.7,1.6,-999,0.06,,,0.01,meteobridge,2016-02-07 11:02:00,
2016-02-08 00:08:00,-999.9,-99.9,29.96,NE,45,1.6,1.6,-999,0.05,,,0.01,meteobridge,2016-02-07 11:08:00,
2016-02-08 00:14:00,-999.9,-99.9,29.95,NE,45,0.0,0.7,-999,0.05,,,0.01,meteobridge,2016-02-07 11:14:00,
2016-02-08 00:25:00,-999.9,-99.9,29.95,NE,45,0.7,0.7,-999,0.05,,,0.02,meteobridge,2016-02-07 11:25:00,
2016-02-08 00:31:00,-999.9,-99.9,29.96,ENE,68,0.0,2.2,-999,0.05,,,0.02,meteobridge,2016-02-07 11:31:00,
2016-02-08 00:37:00,-999.9,-99.9,29.96,NE,45,0.7,0.7,-999,0.05,,,0.02,meteobridge,2016-02-07 11:37:00,
2016-02-08 00:43:00,-999.9,-99.9,29.95,NE,45,2.2,2.2,-999,0.05,,,0.02,meteobridge,2016-02-07 11:43:00,
2016-02-08 00:49:00,-999.9,-99.9,29.96,NE,45,0.0,0.0,-999,0.06,,,0.04,meteobridge,2016-02-07 11:49:00,
2016-02-08 00:55:00,-999.9,-99.9,29.96,NE,45,2.2,2.2,-999,0.05,,,0.04,meteobridge,2016-02-07 11:55:00,
2016-02-08 01:01:00,-999.9,-99.9,29.96,ENE,68,1.6,1.6,-999,0.04,,,0.04,meteobridge,2016-02-07 12:01:00,
2016-02-08 01:06:00,-999.9,-99.9,29.96,ENE,68,0.0,0.0,-999,0.02,,,0.04,meteobridge,2016-02-07 12:06:00,
2016-02-08 01:12:00,-999.9,-99.9,29.95,NE,45,1.6,1.6,-999,0.02,,,0.04,meteobridge,2016-02-07 12:12:00,
2016-02-08 01:24:00,-999.9,-99.9,29.95,East,90,1.6,2.2,-999,0.01,,,0.04,meteobridge,2016-02-07 12:24:00,
2016-02-08 01:30:00,-999.9,-99.9,29.95,NE,45,1.6,3.8,-999,0.01,,,0.04,meteobridge,2016-02-07 12:30:00,
2016-02-08 01:36:00,-999.9,-99.9,29.95,NE,45,1.6,1.6,-999,0.01,,,0.04,meteobridge,2016-02-07 12:36:00,
2016-02-08 01:42:00,-999.9,-99.9,29.95,NE,45,1.6,1.6,-999,0.01,,,0.04,meteobridge,2016-02-07 12:42:00,
2016-02-08 01:48:00,-999.9,-99.9,29.94,East,90,0.7,1.6,-999,0.00,,,0.04,meteobridge,2016-02-07 12:48:00,
2016-02-08 01:53:00,-999.9,-99.9,29.94,East,90,1.6,1.6,-999,0.00,,,0.04,meteobridge,2016-02-07 12:53:00,
2016-02-08 01:59:00,-999.9,-99.9,29.95,NE,45,0.7,1.6,-999,0.00,,,0.05,meteobridge,2016-02-07 12:59:00,
2016-02-08 02:05:00,-999.9,-99.9,29.94,NE,45,0.7,0.7,-999,0.01,,,0.05,meteobridge,2016-02-07 13:05:00,
2016-02-08 02:11:00,-999.9,-99.9,29.94,NE,45,0.0,0.7,-999,0.01,,,0.05,meteobridge,2016-02-07 13:11:00,
2016-02-08 02:17:00,-999.9,-99.9,29.94,NE,45,1.6,2.2,-999,0.02,,,0.06,meteobridge,2016-02-07 13:17:00,
2016-02-08 02:23:00,-999.9,-99.9,29.94,NE,45,0.7,0.7,-999,0.02,,,0.06,meteobridge,2016-02-07 13:23:00,
2016-02-08 02:29:00,-999.9,-99.9,29.94,NW,315,0.7,0.7,-999,0.02,,,0.06,meteobridge,2016-02-07 13:29:00,
2016-02-08 02:35:00,-999.9,-99.9,29.93,East,90,0.0,0.7,-999,0.02,,,0.06,meteobridge,2016-02-07 13:35:00,
2016-02-08 02:40:00,-999.9,-99.9,29.93,NE,45,1.6,1.6,-999,0.02,,,0.06,meteobridge,2016-02-07 13:40:00,
2016-02-08 02:46:00,-999.9,-99.9,29.93,ENE,68,1.6,3.1,-999,0.02,,,0.06,meteobridge,2016-02-07 13:46:00,
2016-02-08 02:52:00,-999.9,-99.9,29.93,East,90,0.0,1.6,-999,0.02,,,0.06,meteobridge,2016-02-07 13:52:00,
2016-02-08 02:58:00,-999.9,-99.9,29.93,East,90,0.7,1.6,-999,0.02,,,0.06,meteobridge,2016-02-07 13:58:00,
2016-02-08 03:04:00,-999.9,-99.9,29.93,NE,45,1.6,3.1,-999,0.01,,,0.06,meteobridge,2016-02-07 14:04:00,
2016-02-08 03:16:00,-999.9,-99.9,29.93,NE,45,2.2,2.2,-999,0.00,,,0.06,meteobridge,2016-02-07 14:16:00,
2016-02-08 03:21:00,-999.9,-99.9,29.93,East,90,0.7,0.7,-999,0.00,,,0.06,meteobridge,2016-02-07 14:21:00,
2016-02-08 03:27:00,-999.9,-99.9,29.93,NE,45,0.7,0.7,-999,0.00,,,0.06,meteobridge,2016-02-07 14:27:00,
2016-02-08 03:33:00,-999.9,-99.9,29.93,East,90,0.7,2.2,-999,0.00,,,0.06,meteobridge,2016-02-07 14:33:00,
2016-02-08 03:39:00,-999.9,-99.9,29.93,NE,45,1.6,1.6,-999,0.00,,,0.06,meteobridge,2016-02-07 14:39:00,
2016-02-08 03:45:00,-999.9,-99.9,29.92,North,0,1.6,1.6,-999,0.00,,,0.06,meteobridge,2016-02-07 14:45:00,
2016-02-08 03:51:00,-999.9,-99.9,29.92,NE,45,0.7,0.7,-999,0.00,,,0.06,meteobridge,2016-02-07 14:51:00,
2016-02-08 03:57:00,-999.9,-99.9,29.92,NE,45,1.6,1.6,-999,0.00,,,0.06,meteobridge,2016-02-07 14:57:00,
2016-02-08 04:03:00,-999.9,-99.9,29.92,North,0,1.6,2.2,-999,0.00,,,0.06,meteobridge,2016-02-07 15:03:00,
2016-02-08 04:08:00,-999.9,-99.9,29.92,North,0,2.2,2.2,-999,0.00,,,0.06,meteobridge,2016-02-07 15:08:00,
2016-02-08 04:14:00,-999.9,-99.9,29.92,NE,45,0.7,0.7,-999,0.00,,,0.06,meteobridge,2016-02-07 15:14:00,
2016-02-08 04:26:00,-999.9,-99.9,29.92,North,0,2.2,3.1,-999,0.00,,,0.06,meteobridge,2016-02-07 15:26:00,
2016-02-08 04:32:00,-999.9,-99.9,29.92,NE,45,2.2,2.2,-999,0.00,,,0.06,meteobridge,2016-02-07 15:32:00,
2016-02-08 04:38:00,-999.9,-99.9,29.92,NE,45,2.2,2.2,-999,0.01,,,0.07,meteobridge,2016-02-07 15:38:00,
2016-02-08 04:44:00,-999.9,-99.9,29.91,NE,45,1.6,3.1,-999,0.01,,,0.07,meteobridge,2016-02-07 15:44:00,
2016-02-08 04:50:00,-999.9,-99.9,29.91,NE,45,0.7,1.6,-999,0.01,,,0.07,meteobridge,2016-02-07 15:50:00,
2016-02-08 04:55:00,-999.9,-99.9,29.91,NE,45,2.2,2.2,-999,0.01,,,0.07,meteobridge,2016-02-07 15:55:00,
2016-02-08 05:01:00,-999.9,-99.9,29.91,NE,45,2.2,3.8,-999,0.01,,,0.07,meteobridge,2016-02-07 16:01:00,
2016-02-08 05:07:00,-999.9,-99.9,29.91,NE,45,2.2,2.2,-999,0.01,,,0.07,meteobridge,2016-02-07 16:07:00,
2016-02-08 05:13:00,-999.9,-99.9,29.91,NE,45,1.6,1.6,-999,0.01,,,0.07,meteobridge,2016-02-07 16:13:00,
2016-02-08 05:19:00,-999.9,-99.9,29.91,NE,45,0.7,1.6,-999,0.01,,,0.07,meteobridge,2016-02-07 16:19:00,
2016-02-08 05:31:00,-999.9,-99.9,29.91,NE,45,0.0,0.7,-999,0.01,,,0.07,meteobridge,2016-02-07 16:31:00,
2016-02-08 05:37:00,-999.9,-99.9,29.91,NE,45,0.7,0.7,-999,0.00,,,0.07,meteobridge,2016-02-07 16:37:00,
2016-02-08 05:42:00,-999.9,-99.9,29.91,NE,45,0.7,0.7,-999,0.00,,,0.07,meteobridge,2016-02-07 16:42:00,
2016-02-08 05:48:00,-999.9,-99.9,29.91,NE,45,0.0,0.7,-999,0.00,,,0.07,meteobridge,2016-02-07 16:48:00,
2016-02-08 05:54:00,-999.9,-99.9,29.90,East,90,0.7,0.7,-999,0.00,,,0.07,meteobridge,2016-02-07 16:54:00,
2016-02-08 06:00:00,-999.9,-99.9,29.90,North,0,0.7,1.6,-999,0.00,,,0.07,meteobridge,2016-02-07 17:00:00,
2016-02-08 06:06:00,-999.9,-99.9,29.90,NE,45,0.7,3.8,-999,0.00,,,0.07,meteobridge,2016-02-07 17:06:00,
2016-02-08 06:12:00,-999.9,-99.9,29.91,NE,45,1.6,1.6,-999,0.00,,,0.07,meteobridge,2016-02-07 17:12:00,
2016-02-08 06:15:00,-999.9,-99.9,29.90,SE,135,0.7,0.7,-999,0.00,,,0.07,meteobridge,2016-02-07 17:15:00,
2016-02-08 06:21:00,-999.9,-99.9,29.90,NE,45,1.6,1.6,-999,0.00,,,0.07,meteobridge,2016-02-07 17:21:00,
2016-02-08 06:27:00,-999.9,-99.9,29.91,NE,45,1.6,1.6,-999,0.00,,,0.07,meteobridge,2016-02-07 17:27:00,
2016-02-08 06:33:00,-999.9,-99.9,29.90,NE,45,0.0,1.6,-999,0.00,,,0.07,meteobridge,2016-02-07 17:33:00,
2016-02-08 06:39:00,-999.9,-99.9,29.91,NE,45,0.7,0.7,-999,0.00,,,0.07,meteobridge,2016-02-07 17:39:00,
2016-02-08 06:45:00,-999.9,-99.9,29.91,East,90,0.0,0.7,-999,0.00,,,0.07,meteobridge,2016-02-07 17:45:00,
2016-02-08 06:51:00,-999.9,-99.9,29.91,NE,45,1.6,1.6,-999,0.00,,,0.07,meteobridge,2016-02-07 17:51:00,
2016-02-08 06:56:00,-999.9,-99.9,29.91,East,90,0.7,1.6,-999,0.00,,,0.07,meteobridge,2016-02-07 17:56:00,
2016-02-08 07:02:00,-999.9,-99.9,29.91,NE,45,0.0,0.0,-999,0.00,,,0.07,meteobridge,2016-02-07 18:02:00,
2016-02-08 07:08:00,-999.9,-99.9,29.91,NE,45,0.7,0.7,-999,0.00,,,0.07,meteobridge,2016-02-07 18:08:00,
2016-02-08 07:14:00,-999.9,-99.9,29.91,East,90,0.7,0.7,-999,0.00,,,0.07,meteobridge,2016-02-07 18:14:00,
2016-02-08 07:20:00,-999.9,-99.9,29.91,East,90,0.0,0.0,-999,0.00,,,0.07,meteobridge,2016-02-07 18:20:00,
2016-02-08 07:26:00,-999.9,-99.9,29.91,NE,45,0.0,0.0,-999,0.00,,,0.07,meteobridge,2016-02-07 18:26:00,
2016-02-08 07:32:00,-999.9,-99.9,29.91,East,90,0.7,0.7,-999,0.00,,,0.07,meteobridge,2016-02-07 18:32:00,
2016-02-08 07:38:00,-999.9,-99.9,29.91,ENE,68,0.0,0.7,-999,0.00,,,0.07,meteobridge,2016-02-07 18:38:00,
2016-02-08 07:43:00,-999.9,-99.9,29.92,East,90,0.0,0.0,-999,0.00,,,0.07,meteobridge,2016-02-07 18:43:00,
2016-02-08 07:49:00,-999.9,-99.9,29.92,SE,135,0.0,0.0,-999,0.00,,,0.07,meteobridge,2016-02-07 18:49:00,
2016-02-08 07:55:00,-999.9,-99.9,29.92,East,90,0.0,0.0,-999,0.00,,,0.07,meteobridge,2016-02-07 18:55:00,
2016-02-08 08:01:00,-999.9,-99.9,29.92,NE,45,0.0,1.6,-999,0.00,,,0.07,meteobridge,2016-02-07 19:01:00,
2016-02-08 08:07:00,-999.9,-99.9,29.92,East,90,0.0,0.0,-999,0.00,,,0.07,meteobridge,2016-02-07 19:07:00,
2016-02-08 08:13:00,-999.9,-99.9,29.92,NE,45,0.0,0.0,-999,0.00,,,0.07,meteobridge,2016-02-07 19:13:00,
2016-02-08 08:19:00,-999.9,-99.9,29.93,East,90,0.7,0.7,-999,0.00,,,0.07,meteobridge,2016-02-07 19:19:00,
2016-02-08 08:25:00,-999.9,-99.9,29.93,NE,45,1.6,1.6,-999,0.00,,,0.07,meteobridge,2016-02-07 19:25:00,
2016-02-08 08:30:00,-999.9,-99.9,29.93,NE,45,1.6,1.6,-999,0.00,,,0.07,meteobridge,2016-02-07 19:30:00,
2016-02-08 08:36:00,-999.9,-99.9,29.93,East,90,0.0,1.6,-999,0.00,,,0.07,meteobridge,2016-02-07 19:36:00,
2016-02-08 08:42:00,-999.9,-99.9,29.93,East,90,0.0,0.0,-999,0.00,,,0.07,meteobridge,2016-02-07 19:42:00,
2016-02-08 08:48:00,-999.9,-99.9,29.93,East,90,0.0,0.7,-999,0.00,,,0.07,meteobridge,2016-02-07 19:48:00,
2016-02-08 08:54:00,-999.9,-99.9,29.93,NE,45,0.0,1.6,-999,0.00,,,0.07,meteobridge,2016-02-07 19:54:00,
2016-02-08 09:00:00,-999.9,-99.9,29.93,SE,135,0.7,0.7,-999,0.00,,,0.07,meteobridge,2016-02-07 20:00:00,
2016-02-08 09:06:00,-999.9,-99.9,29.93,NNE,23,2.2,2.2,-999,0.00,,,0.07,meteobridge,2016-02-07 20:06:00,
2016-02-08 09:12:00,-999.9,-99.9,29.93,NE,45,2.2,3.1,-999,0.00,,,0.07,meteobridge,2016-02-07 20:12:00,
2016-02-08 09:17:00,-999.9,-99.9,29.93,ENE,68,2.2,2.2,-999,0.00,,,0.07,meteobridge,2016-02-07 20:17:00,
2016-02-08 09:23:00,-999.9,-99.9,29.93,NE,45,1.6,1.6,-999,0.00,,,0.07,meteobridge,2016-02-07 20:23:00,
2016-02-08 09:29:00,-999.9,-99.9,29.93,East,90,1.6,2.2,-999,0.00,,,0.07,meteobridge,2016-02-07 20:29:00,
2016-02-08 09:35:00,-999.9,-99.9,29.93,East,90,0.7,0.7,-999,0.00,,,0.07,meteobridge,2016-02-07 20:35:00,
2016-02-08 09:41:00,-999.9,-99.9,29.93,East,90,0.7,1.6,-999,0.00,,,0.07,meteobridge,2016-02-07 20:41:00,
2016-02-08 09:47:00,-999.9,-99.9,29.93,NE,45,1.6,3.1,-999,0.00,,,0.07,meteobridge,2016-02-07 20:47:00,
2016-02-08 09:53:00,-999.9,-99.9,29.93,East,90,0.7,2.2,-999,0.00,,,0.07,meteobridge,2016-02-07 20:53:00,
2016-02-08 09:59:00,-999.9,-99.9,29.93,East,90,0.7,1.6,-999,0.00,,,0.07,meteobridge,2016-02-07 20:59:00,
2016-02-08 10:04:00,-999.9,-99.9,29.93,East,90,0.7,1.6,-999,0.00,,,0.07,meteobridge,2016-02-07 21:04:00,
2016-02-08 10:10:00,-999.9,-99.9,29.93,North,0,2.2,3.1,-999,0.00,,,0.07,meteobridge,2016-02-07 21:10:00,
2016-02-08 10:16:00,-999.9,-99.9,29.93,ENE,68,2.2,3.1,-999,0.00,,,0.07,meteobridge,2016-02-07 21:16:00,
2016-02-08 10:22:00,-999.9,-99.9,29.92,NW,315,2.2,2.2,-999,0.00,,,0.07,meteobridge,2016-02-07 21:22:00,
2016-02-08 10:28:00,-999.9,-99.9,29.92,NE,45,3.1,3.1,-999,0.00,,,0.07,meteobridge,2016-02-07 21:28:00,
2016-02-08 10:34:00,-999.9,-99.9,29.92,NW,315,0.7,2.2,-999,0.00,,,0.07,meteobridge,2016-02-07 21:34:00,
2016-02-08 10:40:00,-999.9,-99.9,29.92,NE,45,3.1,3.8,-999,0.00,,,0.07,meteobridge,2016-02-07 21:40:00,
2016-02-08 10:46:00,-999.9,-99.9,29.92,NE,45,5.4,5.4,-999,0.00,,,0.07,meteobridge,2016-02-07 21:46:00,
2016-02-08 10:57:00,-999.9,-99.9,29.91,SE,135,1.6,3.8,-999,0.00,,,0.07,meteobridge,2016-02-07 21:57:00,
2016-02-08 11:03:00,-999.9,-99.9,29.92,NNE,23,6.9,6.9,-999,0.00,,,0.07,meteobridge,2016-02-07 22:03:00,
2016-02-08 11:09:00,-999.9,-99.9,29.92,ENE,68,3.1,3.1,-999,0.00,,,0.07,meteobridge,2016-02-07 22:09:00,
2016-02-08 11:15:00,-999.9,-99.9,29.91,West,270,2.2,4.5,-999,0.00,,,0.07,meteobridge,2016-02-07 22:15:00,
2016-02-08 11:21:00,-999.9,-99.9,29.91,East,90,2.2,2.2,-999,0.00,,,0.07,meteobridge,2016-02-07 22:21:00,
2016-02-08 11:27:00,-999.9,-99.9,29.91,North,0,3.1,4.5,-999,0.00,,,0.07,meteobridge,2016-02-07 22:27:00,
2016-02-08 11:33:00,-999.9,-99.9,29.91,NE,45,3.1,3.1,-999,0.00,,,0.07,meteobridge,2016-02-07 22:33:00,
2016-02-08 11:38:00,-999.9,-99.9,29.91,East,90,5.4,5.4,-999,0.00,,,0.07,meteobridge,2016-02-07 22:38:00,
2016-02-08 11:44:00,-999.9,-99.9,29.91,NE,45,2.2,3.8,-999,0.00,,,0.07,meteobridge,2016-02-07 22:44:00,
2016-02-08 11:50:00,-999.9,-99.9,29.91,East,90,3.1,3.1,-999,0.00,,,0.07,meteobridge,2016-02-07 22:50:00,
2016-02-08 11:56:00,-999.9,-99.9,29.90,NNE,23,3.8,3.8,-999,0.00,,,0.07,meteobridge,2016-02-07 22:56:00,
2016-02-08 12:02:00,-999.9,-99.9,29.90,East,90,1.6,4.5,-999,0.00,,,0.07,meteobridge,2016-02-07 23:02:00,
2016-02-08 12:08:00,-999.9,-99.9,29.90,NE,45,5.4,5.4,-999,0.00,,,0.07,meteobridge,2016-02-07 23:08:00,
2016-02-08 12:14:00,-999.9,-99.9,29.89,East,90,3.8,4.5,-999,0.00,,,0.07,meteobridge,2016-02-07 23:14:00,
2016-02-08 12:20:00,-999.9,-99.9,29.89,North,0,3.1,3.1,-999,0.00,,,0.07,meteobridge,2016-02-07 23:20:00,
2016-02-08 12:25:00,-999.9,-99.9,29.89,NE,45,1.6,6.9,-999,0.00,,,0.07,meteobridge,2016-02-07 23:25:00,
2016-02-08 12:31:00,-999.9,-99.9,29.88,ENE,68,6.0,6.0,-999,0.00,,,0.07,meteobridge,2016-02-07 23:31:00,
2016-02-08 12:37:00,-999.9,-99.9,29.89,NE,45,2.2,4.5,-999,0.00,,,0.07,meteobridge,2016-02-07 23:37:00,
2016-02-08 12:43:00,-999.9,-99.9,29.88,NW,315,2.2,4.5,-999,0.00,,,0.07,meteobridge,2016-02-07 23:43:00,
2016-02-08 12:49:00,-999.9,-99.9,29.88,East,90,4.5,4.5,-999,0.00,,,0.07,meteobridge,2016-02-07 23:49:00,
2016-02-08 12:55:00,-999.9,-99.9,29.88,ENE,68,3.8,6.0,-999,0.00,,,0.07,meteobridge,2016-02-07 23:55:00,
2016-02-08 13:01:00,-999.9,-99.9,29.88,NE,45,2.2,6.9,-999,0.00,,,0.07,meteobridge,2016-02-08 00:01:00,
2016-02-08 13:07:00,-999.9,-99.9,29.88,NE,45,3.8,6.0,-999,0.00,,,0.07,meteobridge,2016-02-08 00:07:00,
2016-02-08 13:12:00,-999.9,-99.9,29.88,NE,45,6.0,6.0,-999,0.00,,,0.07,meteobridge,2016-02-08 00:12:00,
2016-02-08 13:24:00,-999.9,-99.9,29.88,SE,135,3.8,3.8,-999,0.00,,,0.07,meteobridge,2016-02-08 00:24:00,
2016-02-08 13:30:00,-999.9,-99.9,29.88,NE,45,6.0,8.3,-999,0.00,,,0.07,meteobridge,2016-02-08 00:30:00,
2016-02-08 13:36:00,-999.9,-99.9,29.88,SE,135,7.6,7.6,-999,0.00,,,0.07,meteobridge,2016-02-08 00:36:00,
2016-02-08 13:42:00,-999.9,-99.9,29.87,North,0,2.2,5.4,-999,0.00,,,0.07,meteobridge,2016-02-08 00:42:00,
2016-02-08 13:48:00,-999.9,-99.9,29.87,SE,135,6.0,6.0,-999,0.00,,,0.07,meteobridge,2016-02-08 00:48:00,
2016-02-08 13:54:00,-999.9,-99.9,29.87,NE,45,3.8,5.4,-999,0.00,,,0.07,meteobridge,2016-02-08 00:54:00,
2016-02-08 13:59:00,-999.9,-99.9,29.86,NE,45,6.9,6.9,-999,0.00,,,0.07,meteobridge,2016-02-08 00:59:00,
2016-02-08 14:05:00,-999.9,-99.9,29.86,East,90,5.4,9.2,-999,0.00,,,0.07,meteobridge,2016-02-08 01:05:00,
2016-02-08 14:11:00,-999.9,-99.9,29.86,East,90,1.6,3.8,-999,0.00,,,0.07,meteobridge,2016-02-08 01:11:00,
2016-02-08 14:17:00,-999.9,-99.9,29.86,WNW,293,4.5,6.0,-999,0.00,,,0.07,meteobridge,2016-02-08 01:17:00,
2016-02-08 14:23:00,-999.9,-99.9,29.86,WNW,293,4.5,9.8,-999,0.00,,,0.07,meteobridge,2016-02-08 01:23:00,
2016-02-08 14:29:00,-999.9,-99.9,29.85,NE,45,3.1,5.4,-999,0.00,,,0.07,meteobridge,2016-02-08 01:29:00,
2016-02-08 14:35:00,-999.9,-99.9,29.85,NW,315,4.5,4.5,-999,0.00,,,0.07,meteobridge,2016-02-08 01:35:00,
2016-02-08 14:41:00,-999.9,-99.9,29.85,East,90,5.4,5.4,-999,0.00,,,0.07,meteobridge,2016-02-08 01:41:00,
2016-02-08 14:46:00,-999.9,-99.9,29.85,SE,135,3.1,4.5,-999,0.00,,,0.07,meteobridge,2016-02-08 01:46:00,
2016-02-08 14:52:00,-999.9,-99.9,29.85,NNE,23,3.1,5.4,-999,0.00,,,0.07,meteobridge,2016-02-08 01:52:00,
2016-02-08 14:58:00,-999.9,-99.9,29.85,North,0,3.8,4.5,-999,0.00,,,0.07,meteobridge,2016-02-08 01:58:00,
2016-02-08 15:04:00,-999.9,-99.9,29.84,East,90,6.0,8.3,-999,0.00,,,0.07,meteobridge,2016-02-08 02:04:00,
2016-02-08 15:10:00,-999.9,-99.9,29.84,SE,135,7.6,7.6,-999,0.00,,,0.07,meteobridge,2016-02-08 02:10:00,
2016-02-08 15:16:00,-999.9,-99.9,29.84,NE,45,4.5,4.5,-999,0.00,,,0.07,meteobridge,2016-02-08 02:16:00,
2016-02-08 15:22:00,-999.9,-99.9,29.84,East,90,7.6,7.6,-999,0.00,,,0.07,meteobridge,2016-02-08 02:22:00,
2016-02-08 15:28:00,-999.9,-99.9,29.84,South,180,2.2,5.4,-999,0.00,,,0.07,meteobridge,2016-02-08 02:28:00,
2016-02-08 15:33:00,-999.9,-99.9,29.83,North,0,6.0,6.0,-999,0.00,,,0.07,meteobridge,2016-02-08 02:33:00,
2016-02-08 15:39:00,-999.9,-99.9,29.83,NE,45,4.5,7.6,-999,0.00,,,0.07,meteobridge,2016-02-08 02:39:00,
2016-02-08 15:45:00,-999.9,-99.9,29.83,East,90,6.9,6.9,-999,0.00,,,0.07,meteobridge,2016-02-08 02:45:00,
2016-02-08 15:51:00,-999.9,-99.9,29.83,NE,45,5.4,6.9,-999,0.00,,,0.07,meteobridge,2016-02-08 02:51:00,